[[{"header":{"parameterUnit":"m.s-1","parameterCategory":1,"la1":30.2991,"la2":30.254,"lo1":-89.0895,"lo2":-89.0444,"dy":0.0017,"dx":0.0017,"nx":28,"ny":28,"refTime":"2024-08-27T09:00:00:Z","depth":0,"parameterNumber":2,"parameterNumberName":"U-component_of_WINDS"},"data":[0,0,0,0,0,0,0,0,0,0,0,0,0,0,0,0,0,0,0,0,0,0,0,0,0,0,0,0,0,0,0,0,0,0,0,0,0,0,0,0,0,0,0,0,0,0,0,0,0,0,0,0,0,0,0,0,0,0,-3.6503,-3.6504,0,-3.6618,-3.662,-3.6621,-3.6629,-3.6627,-3.6626,-3.6625,-3.6743,-3.6747,-3.6752,0,0,0,0,0,0,0,0,0,0,0,0,0,-3.6291,-3.6295,-3.6503,-3.6505,-3.6506,-3.6618,-3.662,-3.6621,-3.6629,-3.6627,-3.6626,-3.6624,-3.6742,-3.6747,-3.6752,0,0,0,0,0,0,0,0,0,0,0,0,0,-3.6393,-3.6297,-3.6503,-3.6523,-3.6526,-3.6618,-3.662,-3.6622,-3.6629,-3.6627,-3.6625,-3.6623,-3.674,-3.6746,-3.6753,-3.6832,0,0,-3.6773,-3.6776,0,0,0,0,0,0,0,0,-3.6387,-3.64,-3.6519,-3.6522,-3.6525,-3.6607,-3.6589,-3.6692,-3.663,-3.659,-3.6625,-3.6622,-3.6699,-3.6709,-3.6735,-3.6838,-3.6843,-3.6773,-3.6777,-3.678,-3.6782,0,0,0,0,0,0,0,-3.638,-3.6396,-3.6549,-3.6521,-3.6525,-3.6527,-3.6539,-3.6608,-3.6654,-3.6593,-3.6594,-3.6608,-3.6701,-3.6729,-3.6738,-3.6845,-3.6773,-3.6779,-3.6783,-3.6786,-3.7019,-3.7021,0,0,0,0,0,0,-3.6369,-3.639,-3.6545,-3.6552,-3.645,-3.6533,-3.6546,-3.6583,-3.6654,-3.6662,-3.6609,-3.6608,-3.6719,-3.673,-3.6742,-3.6839,-3.678,-3.6786,-3.679,-3.7017,-3.7019,-3.7022,0,0,0,0,0,0,-3.6364,-3.6383,-3.654,-3.6471,-3.6492,-3.6538,-3.6579,-3.6586,-3.6614,-3.6666,-3.6674,-3.6629,-3.6718,-3.6733,-3.681,-3.6843,-3.6789,-3.6795,-3.7014,-3.7018,-3.7021,-3.7034,0,0,0,0,0,0,-3.6358,-3.6381,-3.6411,-3.6472,-3.6495,-3.6605,-3.6582,-3.659,-3.6625,-3.6624,-3.6686,-3.6695,-3.6717,-3.68,-3.6816,-3.6851,-3.68,-3.7011,-3.7016,-3.702,-3.7031,-3.7037,-3.7043,0,0,0,0,0,-3.6351,-3.641,-3.6412,-3.6431,-3.6533,-3.6607,-3.6621,-3.6645,-3.6628,-3.6659,-3.6692,-3.6693,-3.6838,-3.6808,-3.6826,-3.6864,-3.7009,-3.7014,-3.7019,-3.7028,-3.7036,-3.7043,0,0,0,0,0,0,-3.6351,-3.6418,-3.6421,-3.6502,-3.6549,-3.6608,-3.6647,-3.6653,-3.6706,-3.6702,-3.6731,-3.6745,-3.6821,-3.6851,-3.6816,-3.6945,-3.6922,-3.6931,-3.6922,-3.693,-3.6936,-3.6926,-3.6806,0,0,0,0,0,-3.6361,-3.6415,-3.6471,-3.6537,-3.656,-3.66,-3.6633,-3.6648,-3.6698,-3.6718,-3.6757,-3.6805,-3.6862,-3.6898,-3.6953,-3.7037,-3.705,-3.7072,-3.7078,-3.7083,-3.7089,-3.7136,-3.7146,-3.7039,-3.7039,-3.7039,0,0,-3.6381,-3.6424,-3.6456,-3.6538,-3.6576,-3.6631,-3.6616,-3.6676,-3.6717,-3.6727,-3.6801,-3.6832,-3.6888,-3.6969,-3.7006,-3.6996,-3.7123,-3.7089,-3.7093,-3.7097,-3.7142,-3.7152,-3.7161,-3.7042,-3.7042,-3.7041,0,0,-3.6445,-3.6484,-3.6543,-3.6582,-3.664,-3.6667,-3.6681,-3.674,-3.6761,-3.6837,-3.6845,-3.6896,-3.6993,-3.7032,-3.7065,-3.7148,-3.715,-3.7165,-3.7196,-3.7241,-3.725,-3.7257,-3.7285,-3.7295,-3.7172,-3.7172,-3.7172,0,-3.6462,-3.6546,-3.6573,-3.6632,-3.6668,-3.668,-3.674,-3.6777,-3.685,-3.6875,-3.6863,-3.6985,-3.7024,-3.7114,-3.7134,-3.7161,-3.7178,-3.7156,-3.7246,-3.7254,-3.7262,-3.7289,-3.73,-3.7174,-3.7173,-3.7173,-3.7173,0,-3.6564,-3.6622,-3.6663,-3.6733,-3.6774,-3.6834,-3.687,-3.6909,-3.6921,-3.695,-3.7027,-3.7075,-3.7139,-3.7163,-3.7175,-3.7255,-3.7246,-3.724,-3.7217,-3.7273,-3.7299,-3.7309,-3.7175,-3.7175,-3.7175,-3.7174,0,0,-3.6628,-3.6715,-3.6729,-3.6761,-3.6828,-3.6873,-3.6934,-3.6998,-3.703,-3.7081,-3.7133,-3.7216,-3.7211,-3.7248,-3.7266,-3.7306,-3.7368,-3.7295,-3.7297,-3.7305,-3.7457,-3.7459,-3.7471,-3.7371,-3.7373,-3.7375,-3.7452,0,-3.6699,-3.6806,-3.6833,-3.6925,-3.6979,-3.6993,-3.7047,-3.7094,-3.7123,-3.7173,-3.7206,-3.7263,-3.7253,-3.7276,-3.7316,-3.7351,-3.7398,-3.7347,-3.7419,-3.7421,-3.7401,-3.7485,-3.7487,-3.7557,-3.7462,-3.7464,-3.7466,0,-3.6794,-3.6847,-3.6944,-3.7004,-3.7028,-3.7075,-3.7136,-3.7185,-3.7239,-3.7258,-3.7301,-3.7315,-3.738,-3.7356,-3.7446,-3.741,-3.7442,-3.7464,-3.7468,-3.7473,-3.7444,-3.749,-3.758,-3.759,-3.7482,-3.7481,-3.748,0,-3.6829,-3.6925,-3.6996,-3.7023,-3.7096,-3.7129,-3.716,-3.7213,-3.725,-3.7304,-3.7328,-3.739,-3.7422,-3.747,-3.7501,-3.7481,-3.7588,-3.7567,-3.7605,-3.7604,-3.7624,-3.7621,-3.7717,-3.7649,-3.7649,-3.7648,-3.7648,0,-3.6903,-3.6961,-3.7012,-3.7055,-3.7122,-3.7154,-3.7219,-3.7252,-3.7299,-3.7349,-3.7366,-3.7413,-3.7452,-3.7505,-3.7531,-3.7601,-3.7616,-3.7632,-3.7638,-3.7629,-3.7627,-3.7648,-3.7643,-3.7651,-3.7651,-3.765,-3.765,0,-3.6951,-3.6988,-3.7066,-3.7129,-3.7146,-3.7192,-3.7246,-3.7289,-3.732,-3.7384,-3.74,-3.7449,-3.7512,-3.7548,-3.7628,-3.7645,-3.7722,-3.7727,-3.7703,-3.7705,-3.774,-3.7736,-3.7851,-3.7868,-3.779,-3.7791,-3.7791,0,-3.6995,-3.704,-3.7108,-3.7143,-3.7175,-3.7231,-3.7269,-3.7304,-3.7343,-3.7409,-3.7444,-3.7508,-3.7561,-3.7661,-3.7703,-3.7765,-3.777,-3.7806,-3.7779,-3.7769,-3.7768,-3.7764,-3.7768,-3.781,-3.781,-3.7811,-3.7811,0,-3.7067,-3.7084,-3.7137,-3.7198,-3.7243,-3.7293,-3.7342,-3.737,-3.7413,-3.7456,-3.752,-3.7562,-3.7643,-3.7707,-3.7772,-3.7806,-3.7816,-3.782,-3.7832,-3.7822,-3.7806,-3.7813,-3.7713,-3.7816,-3.7816,-3.7816,-3.7815,-3.7815,-3.7113,-3.7154,-3.7209,-3.7268,-3.731,-3.7356,-3.7399,-3.7436,-3.749,-3.7559,-3.7577,-3.7644,-3.7699,-3.7788,-3.7824,-3.7878,-3.7871,-3.7889,-3.7893,-3.7896,-3.7896,-3.78,-3.789,-3.789,-3.789,-3.789,-3.789,0,-3.7185,-3.7221,-3.7276,-3.7345,-3.7392,-3.7399,-3.7454,-3.7493,-3.7552,-3.7603,-3.7655,-3.773,-3.7792,-3.784,-3.7904,-3.7938,-3.7944,-3.7954,-3.795,-3.7958,-3.7898,-3.7881,-3.7947,-3.7947,-3.7947,-3.7947,-3.7947,-3.7947,-3.7227,-3.7297,-3.732,-3.7411,-3.7447,-3.7513,-3.7544,-3.7587,-3.7628,-3.771,-3.7762,-3.7793,-3.7843,-3.7911,-3.7969,-3.7982,-3.8004,-3.8012,-3.8025,-3.7968,-3.7962,-3.7956,-3.7939,-3.8017,-3.8017,-3.808,-3.808,-3.8081]},{"header":{"parameterUnit":"m.s-1","parameterCategory":1,"la1":30.2991,"la2":30.254,"lo1":-89.0895,"lo2":-89.0444,"dy":0.0017,"dx":0.0017,"nx":28,"ny":28,"refTime":"2024-08-27T09:00:00:Z","depth":0,"parameterNumber":3,"parameterNumberName":"V-component_of_WINDS"},"data":[0,0,0,0,0,0,0,0,0,0,0,0,0,0,0,0,0,0,0,0,0,0,0,0,0,0,0,0,0,0,0,0,0,0,0,0,0,0,0,0,0,0,0,0,0,0,0,0,0,0,0,0,0,0,0,0,0,0,3.1085,3.1086,0,3.1099,3.1099,3.1099,3.1125,3.1126,3.1126,3.1127,3.1135,3.1135,3.1134,0,0,0,0,0,0,0,0,0,0,0,0,0,3.1078,3.1078,3.1085,3.1086,3.1086,3.1099,3.1099,3.1099,3.1125,3.1126,3.1126,3.1127,3.1135,3.1135,3.1134,0,0,0,0,0,0,0,0,0,0,0,0,0,3.1085,3.1078,3.1085,3.11,3.1102,3.1099,3.1099,3.1099,3.1125,3.1126,3.1126,3.1127,3.1135,3.1135,3.1134,3.1116,0,0,3.1133,3.1133,0,0,0,0,0,0,0,0,3.1085,3.1085,3.1098,3.1099,3.1101,3.1111,3.11,3.1105,3.1125,3.1116,3.1127,3.1127,3.1126,3.1126,3.1127,3.1117,3.1117,3.1133,3.1133,3.1133,3.1133,0,0,0,0,0,0,0,3.1084,3.1085,3.1091,3.1098,3.11,3.1105,3.1107,3.1101,3.1116,3.1117,3.1119,3.112,3.1127,3.1127,3.1128,3.1117,3.1133,3.1133,3.1133,3.1132,3.1094,3.1093,0,0,0,0,0,0,3.1082,3.1084,3.109,3.1091,3.1095,3.1105,3.1107,3.1107,3.1116,3.1119,3.112,3.1121,3.1128,3.1128,3.1128,3.1108,3.1133,3.1132,3.1132,3.1095,3.1094,3.1093,0,0,0,0,0,0,3.1082,3.1082,3.109,3.1088,3.109,3.1104,3.1104,3.1107,3.1107,3.1119,3.1121,3.1117,3.1128,3.1128,3.112,3.1109,3.1132,3.1132,3.1096,3.1095,3.1093,3.1068,0,0,0,0,0,0,3.1082,3.1082,3.1076,3.1088,3.109,3.1082,3.1103,3.1107,3.1107,3.111,3.1117,3.1119,3.1129,3.112,3.1119,3.1109,3.1132,3.1097,3.1095,3.1094,3.107,3.1066,3.1063,0,0,0,0,0,3.1081,3.1067,3.1076,3.1076,3.1083,3.1082,3.1082,3.1095,3.1106,3.11,3.1108,3.1119,3.111,3.1119,3.1118,3.1107,3.1098,3.1096,3.1094,3.1071,3.1066,3.1063,0,0,0,0,0,0,3.1051,3.1069,3.1079,3.1068,3.1074,3.1086,3.1078,3.109,3.1091,3.1093,3.1108,3.1109,3.1098,3.1102,3.1111,3.1091,3.1106,3.1104,3.1089,3.1084,3.1081,3.108,3.1131,0,0,0,0,0,3.1044,3.1043,3.1058,3.1047,3.1049,3.1063,3.1063,3.1073,3.1079,3.108,3.1087,3.109,3.1089,3.1087,3.1086,3.1071,3.1073,3.1063,3.1059,3.1057,3.1054,3.1047,3.1043,3.1087,3.1087,3.1087,0,0,3.1027,3.1037,3.1035,3.1041,3.1046,3.1044,3.1065,3.1061,3.1059,3.1079,3.1072,3.1077,3.1082,3.107,3.1065,3.1073,3.1043,3.1054,3.1052,3.1051,3.1045,3.104,3.1037,3.1086,3.1086,3.1086,0,0,3.0996,3.1003,3.0996,3.1001,3.101,3.102,3.1018,3.103,3.1035,3.1028,3.1044,3.1041,3.1038,3.1041,3.1042,3.1015,3.1025,3.1014,3.0995,3.0988,3.0984,3.0981,3.0971,3.0967,3.1012,3.1012,3.1012,0,3.0973,3.0972,3.099,3.0986,3.0988,3.1009,3.1001,3.1005,3.1012,3.1012,3.1022,3.1019,3.1023,3.1013,3.1007,3.1007,3.1005,3.1012,3.0984,3.0981,3.0978,3.0968,3.0965,3.101,3.101,3.1011,3.1011,0,3.0944,3.0943,3.0936,3.0945,3.0946,3.094,3.0956,3.0955,3.0966,3.0974,3.0968,3.0975,3.0976,3.0974,3.0983,3.0965,3.097,3.0981,3.0996,3.0972,3.0963,3.096,3.1008,3.1009,3.1009,3.1009,0,0,3.0892,3.0913,3.091,3.0915,3.0927,3.0926,3.0921,3.0924,3.0923,3.0928,3.0924,3.0922,3.0933,3.0934,3.0944,3.0938,3.0916,3.095,3.095,3.0943,3.0896,3.0887,3.0883,3.0924,3.0923,3.0923,3.0896,0,3.0863,3.0857,3.0874,3.0863,3.0862,3.0883,3.0879,3.0885,3.0894,3.0893,3.0902,3.09,3.0915,3.0916,3.0912,3.092,3.0907,3.0922,3.0918,3.0918,3.0915,3.0878,3.0868,3.0842,3.0893,3.0892,3.0892,0,3.0827,3.0833,3.0823,3.0838,3.0838,3.0834,3.0839,3.0839,3.0847,3.0853,3.0856,3.0869,3.0864,3.088,3.0873,3.0883,3.0883,3.0887,3.0886,3.0885,3.0902,3.0875,3.0834,3.083,3.0887,3.0887,3.0887,0,3.079,3.0795,3.079,3.0793,3.081,3.0807,3.0813,3.0823,3.0824,3.0828,3.0829,3.0832,3.0833,3.0835,3.0847,3.0858,3.0839,3.0856,3.0843,3.0843,3.0837,3.0837,3.0794,3.0838,3.0838,3.0839,3.0839,0,3.0754,3.0747,3.0773,3.077,3.0762,3.0782,3.0773,3.0782,3.079,3.0788,3.0806,3.0804,3.0822,3.0821,3.0831,3.0824,3.0824,3.0828,3.0831,3.0826,3.0825,3.0825,3.0827,3.0838,3.0838,3.0838,3.0838,0,3.071,3.0727,3.0723,3.0741,3.0745,3.0739,3.0753,3.0751,3.0762,3.0759,3.0759,3.0775,3.0776,3.079,3.0792,3.0799,3.0786,3.0793,3.0784,3.0786,3.0772,3.0773,3.0727,3.0722,3.077,3.077,3.0769,0,3.0686,3.0681,3.07,3.0701,3.0707,3.0708,3.0711,3.073,3.0731,3.0742,3.0737,3.074,3.0742,3.0741,3.0752,3.0754,3.076,3.0744,3.076,3.0756,3.0759,3.0759,3.0758,3.074,3.0739,3.0739,3.0738,0,3.0641,3.0651,3.0654,3.0662,3.0665,3.0671,3.0678,3.0677,3.0698,3.0699,3.0701,3.0703,3.0707,3.0708,3.0713,3.0718,3.0731,3.0734,3.0731,3.0725,3.072,3.0722,3.0774,3.0734,3.0734,3.0735,3.0735,3.0735,3.0606,3.0603,3.0616,3.062,3.0628,3.0635,3.0633,3.0645,3.0648,3.0654,3.0665,3.0665,3.0674,3.0682,3.0686,3.0686,3.0694,3.0689,3.0688,3.0687,3.0684,3.0722,3.0687,3.0687,3.0687,3.0687,3.0687,0,3.0561,3.0572,3.0575,3.0586,3.0589,3.0604,3.0613,3.0614,3.0615,3.0623,3.0626,3.0628,3.0631,3.0643,3.0646,3.0644,3.065,3.0644,3.0643,3.0644,3.0677,3.0679,3.0639,3.0639,3.0639,3.0639,3.0639,3.0639,3.0538,3.0535,3.0546,3.0547,3.0557,3.0559,3.0563,3.0569,3.0576,3.0578,3.0581,3.059,3.06,3.0605,3.0607,3.0611,3.0611,3.0602,3.0608,3.0637,3.0642,3.0646,3.0648,3.0603,3.0603,3.0575,3.0575,3.0575]}]]